This is the latest recevied weather packets stored in our database for station/object KK6MIG-13. If no packets are shown the sender has not sent any weather packets the latest 10 day(s).
| Time | Temp. | Humidity | Pressure | Rain* | Wind** | Luminosity | Snow |
|---|---|---|---|---|---|---|---|
| 1787963633 | 17.78° C | 29% | 1013.8 hPa | 0 mm | - | 396 W/m² | - |
| 1787963572 | 17.78° C | 30% | 1013.8 hPa | 0 mm | - | 401 W/m² | - |
| 1787963512 | 17.78° C | 31% | 1013.7 hPa | 0 mm | - | 404 W/m² | - |
| 1787963452 | 17.78° C | 31% | 1013.7 hPa | 0 mm | - | 411 W/m² | - |
| 1787963392 | 17.78° C | 30% | 1013.7 hPa | 0 mm | - | 417 W/m² | - |
| 1787963333 | 17.78° C | 25% | 1013.6 hPa | 0 mm | - | 420 W/m² | - |
| 1787963271 | 17.78° C | 23% | 1013.6 hPa | 0 mm | - | 425 W/m² | - |
| 1787963219 | 17.78° C | 21% | 1013.5 hPa | 0 mm | - | 441 W/m² | - |
| 1787963215 | 17.78° C | 22% | 1013.5 hPa | 0 mm | - | 431 W/m² | - |
| 1787963091 | 17.78° C | 19% | 1013.5 hPa | 0 mm | - | 445 W/m² | - |
| 1787963031 | 17.78° C | 17% | 1013.5 hPa | 0 mm | - | 452 W/m² | - |
| 1787962971 | 17.22° C | 13% | 1013.5 hPa | 0 mm | - | 455 W/m² | - |
| 1787962911 | 17.22° C | 11% | 1013.6 hPa | 0 mm | - | 461 W/m² | - |
| 1787962851 | 17.22° C | 14% | 1013.5 hPa | 0 mm | - | 468 W/m² | - |
| 1787962791 | 17.22° C | 18% | 1013.6 hPa | 0 mm | - | 483 W/m² | - |
| 1787962728 | 17.22° C | 22% | 1013.6 hPa | 0 mm | - | 490 W/m² | - |
| 1787962668 | 17.22° C | 22% | 1013.6 hPa | 0 mm | - | 501 W/m² | - |
| 1787962608 | 17.22° C | 22% | 1013.6 hPa | 0 mm | - | 510 W/m² | - |
| 1787962549 | 17.22° C | 21% | 1013.6 hPa | 0 mm | - | 520 W/m² | - |
| 1787962489 | 17.78° C | 22% | 1013.7 hPa | 0 mm | - | 534 W/m² | - |
| 1787962429 | 17.78° C | 20% | 1013.8 hPa | 0 mm | - | 563 W/m² | - |
| 1787962362 | 17.78° C | 18% | 1013.8 hPa | 0 mm | - | 577 W/m² | - |
| 1787962303 | 17.78° C | 11% | 1013.8 hPa | 0 mm | - | 592 W/m² | - |
| 1787962240 | 17.78° C | 7% | 1013.7 hPa | 0 mm | - | 608 W/m² | - |
| 1787962180 | 17.22° C | 1% | 1013.6 hPa | 0 mm | - | 622 W/m² | - |
* Rain latest hour (hover to see other rain measurements)
** Current wind speed in m/s (hover to see current wind gust speed)